Weather History for Sanford, NC

Change the Weather History Date:

Wednesday, December 4, 2013

  Actual Average (KRDU) Record (KRDU)
Temperature  
Mean Temperature 56 °F 46 °F  
Max Temperature 64 °F 57 °F 79 °F (1978)
Min Temperature 49 °F 36 °F 15 °F (1976)
Degree Days  
Heating Degree Days 8 19  
Month to date heating degree days 73  
Since 1 July heating degree days 654  
Cooling Degree Days 0 0  
Month to date cooling degree days 0  
Year to date cooling degree days 1728  
Growing Degree Days 6 (Base 50)    
Moisture  
Dew Point 53 °F    
Average Humidity 91    
Maximum Humidity 98    
Minimum Humidity 76    
Precipitation  
Precipitation 0.00 in 0.10 in 2.22 in (1931)
Month to date precipitation 0.41  
Year to date precipitation 40.68  
Snow  
Snow 0.00 in 0.00 in 2.60 in (1907)
Month to date snowfall 0.0  
Since 1 July snowfall 0.1  
Snow Depth -    
Sea Level Pressure  
Sea Level Pressure 30.04 in    
Wind  
Wind Speed 0 mph (South)    
Max Wind Speed 5 mph    
Max Gust Speed -    
Visibility 7 miles    
Events Fog , Rain    
T = Trace of Precipitation, MM = Missing Value Source: NWS Daily Summary

Daily Weather History Graph

Daily Weather History Graph

Search for Another Location

Airport:

Trip Planner

Search our weather history database for the weather conditions in past years. The results will help you decide how hot, cold, wet, or windy it might be!

Date:

Astronomy

Dec. 04, 2013 Rise Set
Actual Time 7:10 AM EST 5:03 PM EST
Civil Twilight 6:42 AM EST 5:31 PM EST
Nautical Twilight 6:10 AM EST 6:02 PM EST
Astronomical Twilight 5:39 AM EST 6:33 PM EST
Moon 8:38 AM EST (12/4) 7:09 PM EST (12/4)
Length of Visible Light 10h 48m
Length of Day
9h 52m
Waxing Crescent, 4% of the Moon is Illuminated
Dec 4
Waxing Crescent
Dec 9
First Quarter
Dec 17
Full
Dec 25
Last Quarter
Jan 1
New

Hourly Weather History & Observations

Time (EST) Temp. Dew Point Humidity Pressure Visibility Wind Dir Wind Speed Gust Speed Precip Events Conditions
12:15 AM 50.7 °F 48.6 °F 92% 30.00 in 10.0 mi Calm Calm - N/A   Overcast
12:35 AM 50.2 °F 48.2 °F 93% 30.00 in 10.0 mi Calm Calm - N/A Rain Light Rain
12:55 AM 50.0 °F 48.2 °F 94% 29.99 in 10.0 mi Calm Calm - N/A Rain Light Rain
1:15 AM 50.0 °F 48.4 °F 94% 29.99 in 10.0 mi Calm Calm - N/A   Overcast
1:35 AM 50.0 °F 48.7 °F 95% 29.99 in 7.0 mi Calm Calm - N/A Rain Light Rain
1:55 AM 50.4 °F 49.1 °F 95% 29.99 in 7.0 mi Calm Calm - N/A   Overcast
2:15 AM 50.2 °F 49.1 °F 96% 30.00 in 7.0 mi Calm Calm - N/A   Overcast
2:35 AM 50.9 °F 49.3 °F 94% 30.01 in 7.0 mi Calm Calm - N/A   Overcast
2:55 AM 50.9 °F 49.5 °F 95% 30.01 in 7.0 mi Calm Calm - N/A   Overcast
3:15 AM 50.9 °F 49.5 °F 95% 30.01 in 7.0 mi Calm Calm - N/A   Overcast
3:35 AM 50.9 °F 50.0 °F 97% 30.01 in 7.0 mi Calm Calm - N/A   Overcast
3:55 AM 51.4 °F 50.0 °F 95% 30.02 in 7.0 mi Calm Calm - N/A   Overcast
4:15 AM 50.9 °F 49.8 °F 96% 30.01 in 7.0 mi Calm Calm - N/A   Overcast
4:35 AM 50.9 °F 50.0 °F 97% 30.01 in 5.0 mi Calm Calm - N/A   Overcast
4:55 AM 51.1 °F 50.0 °F 96% 30.01 in 5.0 mi Calm Calm - N/A   Overcast
5:15 AM 50.9 °F 49.8 °F 96% 30.00 in 5.0 mi Calm Calm - N/A   Overcast
5:35 AM 50.4 °F 49.3 °F 96% 30.00 in 7.0 mi Calm Calm - N/A   Overcast
5:55 AM 51.3 °F 49.8 °F 95% 30.01 in 7.0 mi Calm Calm - N/A   Overcast
6:15 AM 50.4 °F 49.1 °F 95% 30.01 in 5.0 mi Calm Calm - N/A   Mostly Cloudy
6:35 AM 49.3 °F 48.4 °F 97% 30.01 in 4.0 mi Calm Calm - N/A   Mostly Cloudy
6:55 AM 49.3 °F 48.4 °F 97% 30.02 in 5.0 mi Calm Calm - N/A   Overcast
7:15 AM 50.0 °F 49.1 °F 97% 30.03 in 5.0 mi Calm Calm - N/A   Overcast
7:35 AM 50.5 °F 49.6 °F 97% 30.04 in 5.0 mi Calm Calm - N/A   Overcast
7:55 AM 51.4 °F 50.0 °F 95% 30.05 in 5.0 mi Calm Calm - N/A   Overcast
8:15 AM 51.8 °F 50.2 °F 94% 30.05 in 5.0 mi Calm Calm - N/A   Overcast
8:35 AM 52.3 °F 50.5 °F 94% 30.06 in 5.0 mi Calm Calm - N/A   Overcast
8:55 AM 52.7 °F 50.9 °F 94% 30.06 in 7.0 mi Calm Calm - N/A   Overcast
9:15 AM 53.4 °F 51.3 °F 92% 30.07 in 5.0 mi Calm Calm - N/A   Overcast
9:35 AM 54.0 °F 51.8 °F 92% 30.07 in 5.0 mi Calm Calm - N/A   Overcast
9:55 AM 54.5 °F 51.8 °F 91% 30.07 in 5.0 mi Calm Calm - N/A   Overcast
10:15 AM 55.4 °F 52.5 °F 90% 30.07 in 7.0 mi Calm Calm - N/A   Overcast
10:35 AM 56.1 °F 53.2 °F 90% 30.08 in 5.0 mi Calm Calm - N/A   Overcast
10:55 AM 56.7 °F 53.6 °F 89% 30.08 in 5.0 mi Calm Calm - N/A   Overcast
11:15 AM 57.4 °F 54.3 °F 90% 30.08 in 5.0 mi Calm Calm - N/A   Overcast
11:35 AM 58.8 °F 54.9 °F 87% 30.07 in 7.0 mi Calm Calm - N/A   Overcast
11:55 AM 59.9 °F 55.9 °F 87% 30.06 in 7.0 mi Calm Calm - N/A   Overcast
12:15 PM 60.6 °F 56.1 °F 85% 30.05 in 10.0 mi Calm Calm - N/A   Overcast
12:35 PM 61.0 °F 56.3 °F 85% 30.04 in 10.0 mi Calm Calm - N/A   Overcast
12:55 PM 61.9 °F 56.5 °F 82% 30.04 in 10.0 mi Calm Calm - N/A   Overcast
1:15 PM 62.6 °F 56.5 °F 80% 30.03 in 10.0 mi Calm Calm - N/A   Overcast
1:35 PM 63.5 °F 56.7 °F 78% 30.03 in 10.0 mi Calm Calm - N/A   Overcast
1:55 PM 64.2 °F 56.7 °F 76% 30.01 in 10.0 mi Calm Calm - N/A   Overcast
2:15 PM 63.7 °F 56.7 °F 78% 30.01 in 10.0 mi Calm Calm - N/A   Mostly Cloudy
2:35 PM 64.0 °F 56.8 °F 77% 30.01 in 10.0 mi Calm Calm - N/A   Overcast
2:55 PM 63.9 °F 56.8 °F 78% 30.01 in 10.0 mi Calm Calm - N/A   Overcast
3:15 PM 63.5 °F 56.7 °F 78% 30.01 in 10.0 mi Calm Calm - N/A   Overcast
3:35 PM 63.5 °F 56.7 °F 78% 30.02 in 10.0 mi Calm Calm - N/A   Overcast
3:55 PM 63.1 °F 57.2 °F 81% 30.02 in 10.0 mi Calm Calm - N/A   Overcast
4:15 PM 62.6 °F 57.2 °F 82% 30.03 in 10.0 mi Calm Calm - N/A   Overcast
4:35 PM 62.1 °F 57.4 °F 85% 30.03 in 10.0 mi Calm Calm - N/A   Overcast
4:55 PM 61.9 °F 57.4 °F 85% 30.04 in 10.0 mi Calm Calm - N/A   Overcast
5:15 PM 61.5 °F 57.6 °F 87% 30.04 in 10.0 mi Calm Calm - N/A   Overcast
5:35 PM 60.8 °F 57.4 °F 88% 30.05 in 10.0 mi Calm Calm - N/A   Overcast
5:55 PM 60.1 °F 57.6 °F 91% 30.06 in 10.0 mi SW 3.5 mph - N/A   Overcast
6:15 PM 60.8 °F 57.2 °F 88% 30.07 in 10.0 mi SW 3.5 mph - N/A   Overcast
6:35 PM 60.8 °F 57.0 °F 87% 30.07 in 10.0 mi SW 3.5 mph - N/A   Overcast
6:55 PM 60.4 °F 56.7 °F 87% 30.07 in 10.0 mi SSW 4.6 mph - N/A   Overcast
7:15 PM 60.1 °F 56.7 °F 88% 30.07 in 10.0 mi East 3.5 mph - N/A   Overcast
7:35 PM 58.5 °F 56.3 °F 93% 30.06 in 10.0 mi East 4.6 mph - N/A   Scattered Clouds
7:55 PM 58.5 °F 56.3 °F 93% 30.06 in 10.0 mi SE 4.6 mph - N/A   Clear
8:15 PM 57.0 °F 54.7 °F 92% 30.07 in 7.0 mi SSW 4.6 mph - N/A   Clear
8:35 PM 57.0 °F 55.6 °F 95% 30.07 in 10.0 mi Calm Calm - N/A   Clear
8:55 PM 57.2 °F 55.6 °F 94% 30.06 in 7.0 mi Calm Calm - N/A   Clear
9:15 PM 55.4 °F 53.8 °F 94% 30.07 in 5.0 mi Calm Calm - N/A   Clear
9:35 PM 54.1 °F 53.2 °F 97% 30.08 in 2.5 mi Calm Calm - N/A   Clear
9:55 PM 54.7 °F 54.0 °F 97% 30.08 in 0.2 mi Calm Calm - N/A Fog Fog
10:15 PM 52.3 °F 51.6 °F 97% 30.08 in 0.2 mi South 3.5 mph - N/A Fog Fog
10:35 PM 51.8 °F 51.1 °F 97% 30.09 in 0.5 mi Calm Calm - N/A Fog Fog
10:55 PM 50.5 °F 50.0 °F 98% 30.09 in 2.0 mi Calm Calm - N/A   Clear
11:15 PM 51.1 °F 50.5 °F 98% 30.11 in 4.0 mi Calm Calm - N/A   Scattered Clouds
11:35 PM 51.4 °F 50.7 °F 97% 30.10 in 1.0 mi Calm Calm - N/A   Overcast
11:55 PM 50.7 °F 50.2 °F 98% 30.11 in 3.0 mi Calm Calm - N/A   Overcast